EW5812 Weather Reports


time (UTC)temp
C
wind
direction
speed
KPH
gust
KPH
rain 1hr
cm
rain 24hr
cm
rain mn
cm
humidity
%
barometer
mb
20260510223012 21 89 20.9 41.8 0.00 0.00 0.00 28 1009.3
20260510221511 20 73 12.9 30.6 0.00 0.00 0.00 21 1009.3
20260510220010 20 121 20.9 35.4 0.00 0.00 0.00 23 1009.6
20260510214510 20 118 29.0 38.6 0.00 0.00 0.00 27 1009.7
20260510213018 18 152 16.1 37.0 0.00 0.00 0.00 27 1009.9
20260510211512 18 95 30.6 57.9 0.00 0.00 0.00 34 1010.0
20260510210007 20 113 14.5 32.2 0.00 0.00 0.00 27 1010.2
20260510204516 20 164 9.7 29.0 0.00 0.00 0.00 20 1010.0
20260510203006 20 228 6.4 29.0 0.00 0.00 0.00 17 1010.2
20260510201505 21 179 6.4 22.5 0.00 0.00 0.00 16 1010.4
20260510200005 20 87 4.8 24.1 0.00 0.00 0.00 17 1010.4
20260510194502 20 282 9.7 17.7 0.00 0.00 0.00 18 1010.5
20260510193111 19 278 1.6 27.4 0.00 0.00 0.00 16 1010.5
20260510191603 20 308 6.4 16.1 0.00 0.00 0.00 15 1010.5
20260510190103 19 243 9.7 27.4 0.00 0.00 0.00 20 1010.5
20260510184556 19 166 6.4 45.1 0.00 0.00 0.00 22 1010.6
20260510183054 18 195 3.2 22.5 0.00 0.00 0.00 23 1010.6
20260510181552 18 206 4.8 14.5 0.00 0.00 0.00 26 1010.7
20260510180050 17 248 9.7 30.6 0.00 0.00 0.00 27 1010.9
20260510174553 18 192 14.5 22.5 0.00 0.00 0.00 27 1010.8
20260510173057 17 43 3.2 20.9 0.00 0.00 0.00 30 1010.9
20260510171543 17 191 4.8 29.0 0.00 0.00 0.00 29 1011.1
20260510170042 16 292 6.4 22.5 0.00 0.00 0.00 29 1011.0
20260510164553 16 31 4.8 17.7 0.00 0.00 0.00 34 1011.0
20260510163039 15 320 9.7 19.3 0.00 0.00 0.00 36 1011.0
20260510161531 15 266 12.9 19.3 0.00 0.00 0.00 39 1010.8
20260510160030 15 286 8.0 17.7 0.00 0.00 0.00 41 1010.9
20260510154528 14 291 11.3 19.3 0.00 0.00 0.00 44 1010.9
20260510153036 13 295 17.7 22.5 0.00 0.00 0.00 45 1010.9
20260510151520 13 291 12.9 17.7 0.00 0.00 0.00 46 1010.6
20260510150016 13 280 17.7 25.7 0.00 0.00 0.00 46 1010.6
20260510144520 12 235 12.9 17.7 0.00 0.00 0.00 49 1010.7
20260510143007 12 160 6.4 14.5 0.00 0.00 0.00 51 1010.8
20260510141504 11 257 11.3 24.1 0.00 0.00 0.00 52 1010.7
20260510140100 11 272 8.0 16.1 0.00 0.00 0.00 52 1010.7
20260510134555 10 235 11.3 17.7 0.00 0.00 0.00 56 1010.4
20260510133051 9 256 9.7 16.1 0.00 0.00 0.00 57 1010.2
20260510131549 7 275 4.8 14.5 0.00 0.00 0.00 57 1009.8
20260510130043 6 326 12.9 16.1 0.00 0.00 0.00 55 1009.2
20260510124541 6 321 12.9 16.1 0.00 0.00 0.00 51 1008.9
20260510123037 7 346 9.7 14.5 0.00 0.00 0.00 51 1008.6
20260510121535 7 359 9.7 12.9 0.00 0.00 0.00 51 1008.5
20260510120035 8 305 8.0 9.7 0.00 0.00 0.00 51 1008.5
20260510114530 9 268 11.3 14.5 0.00 0.00 0.00 48 1008.5
20260510113024 10 206 9.7 12.9 0.00 0.00 0.00 45 1008.4
20260510111523 9 155 8.0 11.3 0.00 0.00 0.00 44 1008.2
20260510110025 10 342 9.7 14.5 0.00 0.00 0.00 43 1008.0
20260510104516 10 343 12.9 16.1 0.00 0.00 0.00 41 1007.8
20260510103014 11 300 6.4 19.3 0.00 0.00 0.00 39 1007.5
20260510101513 11 303 11.3 14.5 0.00 0.00 0.00 43 1007.3
20260510100008 12 163 0.0 8.0 0.00 0.00 0.00 41 1006.9
20260510094506 13 206 3.2 8.0 0.00 0.00 0.00 36 1006.8
20260510093007 13 152 3.2 12.9 0.00 0.00 0.00 37 1006.9
20260510091504 13 326 0.0 9.7 0.00 0.00 0.00 34 1006.7
20260510090003 13 258 4.8 9.7 0.00 0.00 0.00 32 1006.6
20260510084507 13 197 1.6 16.1 0.00 0.00 0.00 32 1006.3
20260510083002 13 76 11.3 24.1 0.00 0.00 0.00 31 1005.8
20260510081601 13 106 22.5 29.0 0.00 0.00 0.00 32 1005.6
20260510080112 12 95 16.1 20.9 0.00 0.00 0.00 35 1005.7
20260510074617 13 176 6.4 14.5 0.00 0.00 0.00 35 1006.1
20260510073054 13 40 11.3 20.9 0.00 0.00 0.00 35 1006.4
20260510071558 13 62 11.3 14.5 0.00 0.00 0.00 33 1006.7
20260510070052 15 115 11.3 30.6 0.00 0.00 0.00 30 1006.7
20260510064605 13 253 17.7 22.5 0.00 0.00 0.00 35 1006.8
20260510063045 13 191 8.0 14.5 0.00 0.00 0.00 34 1006.8
20260510061543 14 220 6.4 9.7 0.00 0.00 0.00 33 1006.5
20260510060046 14 219 0.0 4.8 0.00 0.00 0.00 33 1006.3
20260510054537 14 158 9.7 12.9 0.00 0.00 0.00 33 1006.3
20260510053041 14 124 8.0 12.9 0.00 0.00 0.00 32 1006.4
20260510051542 15 132 11.3 14.5 0.00 0.00 0.00 29 1006.4
20260510050038 15 195 6.4 11.3 0.00 0.00 0.00 28 1006.3
20260510044540 16 11 1.6 9.7 0.00 0.00 0.00 27 1006.1
20260510043044 16 10 6.4 12.9 0.00 0.00 0.00 27 1005.7
20260510041549 16 335 9.7 14.5 0.00 0.00 0.00 25 1005.7
20260510040035 16 4 9.7 14.5 0.00 0.00 0.00 26 1005.7
20260510034534 16 319 11.3 16.1 0.00 0.00 0.00 24 1005.7
20260510033035 17 321 16.1 27.4 0.00 0.00 0.00 24 1005.6
20260510031533 18 332 22.5 33.8 0.00 0.00 0.00 22 1005.4
20260510030032 17 329 17.7 24.1 0.00 0.00 0.00 23 1005.1
20260510024536 17 320 16.1 19.3 0.00 0.00 0.00 22 1004.8
20260510023032 18 342 12.9 25.7 0.00 0.00 0.00 21 1004.4
20260510021533 18 354 19.3 29.0 0.00 0.00 0.00 21 1004.2
20260510020031 19 338 20.9 33.8 0.00 0.00 0.00 21 1004.0
20260510014531 20 349 30.6 43.5 0.00 0.00 0.00 20 1003.8
20260510013030 20 318 22.5 33.8 0.00 0.00 0.00 18 1003.4
20260510011536 21 287 20.9 40.2 0.00 0.00 0.00 15 1003.2
20260510010037 21 274 32.2 43.5 0.00 0.00 0.00 15 1002.8
20260510004529 21 280 24.1 45.1 0.00 0.00 0.00 16 1002.9
20260510003032 21 281 30.6 46.7 0.00 0.00 0.00 16 1002.8
20260510001528 21 314 30.6 46.7 0.00 0.00 0.00 16 1002.7
20260510000028 21 298 32.2 45.1 0.00 0.00 0.00 16 1002.6
20260509234527 22 302 30.6 46.7 0.00 0.00 0.00 15 1002.5
20260509233027 22 297 38.6 53.1 0.00 0.00 0.00 15 1002.6
20260509231531 22 274 37.0 46.7 0.00 0.00 0.00 15 1002.7
20260509230027 22 255 24.1 35.4 0.00 0.00 0.00 16 1002.6
20260509224526 22 336 9.7 25.7 0.00 0.00 0.00 16 1002.7